Regional Weather Roundup
Issued by NWS

Home | Current Version | Previous Version | Text Only | Print | Product List | Glossary On
Versions: 1 2 3 4 5 6 7 8 9 10 11 12 13 14 15 16 17 18 19 20 21 22 23 24 25 26 27 28 29 30 31 32 33 34 35 36 37 38 39 40 41 42 43 44 45 46 47 48 49 50
000
ASUS43 KTOP 230108
RWRKS

WEATHER ROUNDUP FOR KANSAS
NATIONAL WEATHER SERVICE GOODLAND KS
800 PM CDT WED MAR 22 2017

NOTE:  "FAIR" INDICATES FEW OR NO CLOUDS BELOW 12,000 FEET WITH NO
SIGNIFICANT WEATHER AND/OR OBSTRUCTIONS TO VISIBILITY.

KSZ001>006-013>018-027>032-041>047-230200-
NORTHWEST KANSAS

CITY           SKY/WX    TMP DP  RH WIND       PRES   REMARKS
GOODLAND       CLOUDY    54  39  57 SE18G24   29.92S
HAYS             N/A     52  36  54 SE15      30.06R
HILL CITY      MOCLDY    51  35  54 SE9       30.03F
RUSSELL        CLOUDY    52  34  50 SE15      30.05S
$$

KSZ061>065-074>080-084>089-230200-
SOUTHWEST KANSAS

CITY           SKY/WX    TMP DP  RH WIND       PRES   REMARKS
DODGE CITY     CLOUDY    54  38  54 SE13      30.02R
ELKHART          N/A     63  42  46 SE16        N/A
GARDEN CITY    CLOUDY    57  38  48 SE14      29.98S
GREAT BEND     CLOUDY    52  36  54 SE17      30.06S
LIBERAL        CLEAR     63  41  45 SE12      29.98S
PRATT          CLEAR     49  37  62 SE8       30.06S
$$

KSZ066>073-081>083-090>101-230200-
SOUTHEAST KANSAS

CITY           SKY/WX    TMP DP  RH WIND       PRES   REMARKS
CHANUTE        CLOUDY    56  33  42 SE10      30.16S
COFFEYVILLE    CLOUDY    57  40  52 E9        30.15S
HUTCHINSON     CLOUDY    54  36  50 E10       30.08F
MEDICINE LODGE   N/A     54  41  61 E6        30.04F
NEWTON         CLOUDY    54  33  45 E12       30.11S
PARSONS        CLOUDY    57  37  47 VRB5      30.16S
WICHITA INTL   MOCLDY    56  40  55 E12       30.08F
WICHITA JABRA  CLOUDY    54  39  57 SE14      30.10S
WICHITA MCCONL MOCLDY    55  38  53 SE13      30.09F
WINFIELD       MOCLDY    57  41  55 E13       30.10F
$$

KSZ007>012-019>026-033>040-048>060-102>105-230200-
NORTHEAST KANSAS

CITY           SKY/WX    TMP DP  RH WIND       PRES   REMARKS
CONCORDIA      CLOUDY    53  28  38 SE17G24   30.10S
EMPORIA        CLOUDY    55  31  39 SE14      30.14F
LAWRENCE       CLOUDY    54  29  38 E17       30.19F
MANHATTAN      CLOUDY    55  28  35 E10G20    30.14F
MARYSVILLE     CLOUDY    54  30  40 SE13G23   30.14S
OLATHE IND     CLOUDY    53  28  38 E13       30.19F
OLATHE EXE     CLOUDY    51  28  41 E14       30.20R
SALINA         CLOUDY    58  31  35 SE16      30.11F
TOPEKA BILLARD CLOUDY    55  31  39 E12       30.17F
TOPEKA FORBES  CLOUDY    56  30  37 SE12      30.17S
$$




USA.gov is the U.S. government's official web portal to all federal, state and local government web resources and services.